348  
NZUS99 KTBW 140511  
RWRTPA  
FLORIDA REGIONAL WEATHER ROUNDUP  
NATIONAL WEATHER SERVICE TAMPA BAY RUSKIN FL  
100 AM EDT SUN JUL 14 2024  
 
NOTE: "FAIR" INDICATES FEW OR NO CLOUDS BELOW 12,000 FEET WITH NO  
SIGNIFICANT WEATHER AND/OR S TO VISIBILITY
.  
 
 
STATION/POSITION
 
 
 
FLZ042-048>051-055-056-060-061-140600-  
EXTRA STATIONS  
 
CITY SKY/WX TMP DP RH WIND PRES REMARKS
 
EVERGLADES CTY NOT AVBL  
CRYSTAL RIVER CLEAR 77 73 88 CALM 30.18R  
SEBRING PTCLDY 76 75 96 CALM 30.19F  
EGLIN AFB CLEAR 82 77 85 SW5 30.15S HX 90  
CANAVERAL CLEAR 79 75 87 S3 30.14F  
 

 
FLZ001>010-012>015-140600-  
PANHANDLE FLORIDA  
 
CITY SKY/WX TMP DP RH WIND PRES REMARKS
 
PENSACOLA CLEAR 81 73 76 SW7 30.15F  
MILTON NAS CLEAR 79 76 90 W3 30.16S  
CRESTVIEW CLEAR 81 77 88 W3 30.17S  
VALPARAISO CLEAR 85 78 82 W3 30.15S HX 96  
MARY ESTHER CLEAR 85 77 76 W6 30.14S HX 95  
PANAMA CITY CLEAR 81 78 91 W5 30.14S  
TYNDALL AFB PTCLDY 85 77 76 CALM 30.14R HX 95  
APALACHICOLA CLEAR 79 77 94 CALM 30.15R  
 
STATION/POSITION
 
 
29.2N 88.2W  
28.5N 84.5W  
 

 
FLZ011-016>039-140600-  
NORTH FLORIDA  
 
CITY SKY/WX TMP DP RH WIND PRES REMARKS
 
MARIANNA PTCLDY 79 76 90 CALM 30.15S  
TALLAHASSEE CLEAR 80 73 79 CALM 30.16R  
GAINESVILLE CLEAR 78 75 90 CALM 30.19R  
MAYPORT NAS PTCLDY 84 73 69 S7 30.15S HX 90  
JACKSONVILLE MOCLDY 82 74 76 S5 30.15R  
JAX CRAIG PTCLDY 80 74 81 S5 30.16S  
ST AUGUSTINE CLEAR 80 74 81 VRB7G26 30.18R  
 
STATION/POSITION
 
 
31.4N 80.9W  
ST AUGUSTINE  
 

 
FLZ040-043>046-052-053-057-058-063-140600-  
CENTRAL FLORIDA  
 
CITY SKY/WX TMP DP RH WIND PRES REMARKS
 
OCALA CLEAR 79 74 84 CALM 30.18R  
LEESBURG CLEAR 80 76 87 SE5 30.19S  
SANFORD CLEAR 79 75 87 SW5 30.18S  
ORLANDO EXEC CLEAR 79 75 87 CALM 30.18F  
ORLANDO INTL MOCLDY 77 76 96 S6 30.18F  
KISSIMMEE PTCLDY 78 76 93 CALM 30.19F  
WINTER HAVEN PTCLDY 78 76 93 SE3 30.20S  
LAKELAND INTL PTCLDY 76 76 99 CALM 30.19F  
BARTOW PTCLDY 77 75 94 CALM 30.19F  
 

 
FLZ041-047-054-059-064-140600-  
EAST CENTRAL FLORIDA  
 
CITY SKY/WX TMP DP RH WIND PRES REMARKS
 
DAYTONA BEACH CLEAR 75 73 93 CALM 30.18S  
JFK SPACE CTR CLEAR 80 75 85 CALM 30.15F  
PATRICK AFB CLEAR N/A N/A N/A SW6 30.16F  
MELBOURNE PTCLDY 76 74 93 CALM 30.18S  
VERO BEACH CLEAR 76 73 91 W3 30.18F  
FT PIERCE CLEAR 75 72 90 CALM 30.17F  
STUART PTCLDY 82 79 89 SE6 30.17F HX 93  
 
STATION/POSITION
 
 
28.9N 78.5W  
 

 
FLZ042-048>051-055-056-060-061-140600-  
WEST CENTRAL FLORIDA  
 
CITY SKY/WX TMP DP RH WIND PRES REMARKS
 
BROOKSVILLE PTCLDY 78 32 18 SE7 30.19R  
TAMPA MOCLDY 80 74 81 E6 30.18R  
MACDILL AFB CLOUDY 82 78 88 E7 30.16R HX 91  
ST PETERSBURG PTCLDY 82 76 81 SE5 30.18R  
ST PET-WHITTED PTCLDY 83 75 77 E8 30.16R HX 90  
SARASOTA PTCLDY 77 73 87 E7 30.17R  
VENICE PTCLDY 79 79 100 VRB6G13 30.18S  
 
STATION/POSITION
 
 
28.5N 84.5W  
VENICE  
 

 
FLZ062-065-066-069-070-075>078-140600-  
SOUTHWEST FLORIDA AND KEYS  
 
CITY SKY/WX TMP DP RH WIND PRES REMARKS
 
PUNTA GORDA MOCLDY 79 71 76 E3 30.19S  
FT MYERS MOCLDY 77 72 84 E3 30.17R  
SOUTHWEST INTL N/A 76 74 93 NE5 30.18R  
NAPLES PTCLDY 77 77 100 E6 30.16S  
MARATHON CLOUDY 82 75 79 E14 30.14F  
KEY WEST NAS PTCLDY 87 79 76 E14 30.15R HX 101  
KEY WEST INTL PTCLDY 84 76 76 E10G18 30.15R HX 93  
 
STATION/POSITION
 
 
VENICE  
SAND KEY  
SOMBRERO KEY  
LONG KEY  
 

 
FLZ067-068-071>074-140600-  
SOUTHEAST FLORIDA  
 
CITY SKY/WX TMP DP RH WIND PRES REMARKS
 
W PALM BEACH MOCLDY 85 81 88 E9 30.17F THUNDER HX 100  
POMPANO BEACH MOCLDY 85 79 82 E7 30.17F HX 98  
FT LAUDER-EXEC MOCLDY 86 81 85 E7 30.17S HX 102  
FT LAUDERDALE PTCLDY 85 79 82 SE13 30.17S HX 98  
PEMBROKE PINES MOCLDY 87 78 74 E7 30.18F HX 100  
OPA LOCKA MOCLDY 84 80 88 SE6 30.17S HX 97  
MIAMI CLOUDY 85 79 82 E8 30.17F HX 98  
WEST KENDALL CLOUDY 84 80 88 E6 30.17R HX 97  
HOMESTEAD LGT RAIN 78 74 88 CALM 30.15F  
 
STATION/POSITION
 
 
LAKE WORTH  
SETTLEMENT POINT  
 

 
 
 
CLICK HERE TO GO TO PREVIOUS BULLETINS.

The Nexlab FL Page Main Text Page